2023/10/28 00:00:00,10.0,10.1
2023/10/28 00:10:00,17.8,10.2
2023/10/28 00:20:00,18.6,10.0
2023/10/28 00:30:00,17.4, 9.7
2023/10/28 00:40:00, 3.9, 9.6
2023/10/28 00:50:00,15.8, 9.2
2023/10/28 01:00:00,20.3, 9.2
2023/10/28 01:10:00,19.9, 9.4
2023/10/28 01:20:00,19.9, 9.6
2023/10/28 01:30:00,18.8, 9.5
2023/10/28 01:40:00,12.8, 9.6
2023/10/28 01:50:00, 6.1, 9.6
2023/10/28 02:00:00,11.4, 9.5
2023/10/28 02:10:00,16.9, 9.4
2023/10/28 02:20:00,15.8, 9.5
2023/10/28 02:30:00, 8.3, 9.5
2023/10/28 02:40:00,13.8, 9.6
2023/10/28 02:50:00, 8.1, 9.6
2023/10/28 03:00:00,13.2, 9.6
2023/10/28 03:10:00,16.8, 9.6
2023/10/28 03:20:00,11.4, 9.8
2023/10/28 03:30:00,14.9, 9.8
2023/10/28 03:40:00, 8.6, 9.9
2023/10/28 03:50:00, 7.4,10.0
2023/10/28 04:00:00, 6.9,10.2
2023/10/28 04:10:00, 6.9,10.3
2023/10/28 04:20:00,19.1, 9.9
2023/10/28 04:30:00,11.6, 9.9
2023/10/28 04:40:00,12.9,10.2
2023/10/28 04:50:00,10.8,10.0
2023/10/28 05:00:00,10.0, 9.9
2023/10/28 05:10:00,12.2,10.1
2023/10/28 05:20:00,13.0,10.1
2023/10/28 05:30:00, 8.2,10.1
2023/10/28 05:40:00, 5.0,10.2
2023/10/28 05:50:00, 6.1,10.2
2023/10/28 06:00:00,10.7,10.5
2023/10/28 06:10:00,16.8,10.3
2023/10/28 06:20:00, 3.6,10.4
2023/10/28 06:30:00, 2.7,10.6
2023/10/28 06:40:00, 1.7,10.6
2023/10/28 06:50:00,16.0,10.5
2023/10/28 07:00:00,17.4,10.7
2023/10/28 07:10:00,18.5,10.4
2023/10/28 07:20:00,16.9,10.8
2023/10/28 07:30:00,14.4,11.2
2023/10/28 07:40:00,13.6,11.2
2023/10/28 07:50:00,17.6,11.1
2023/10/28 08:00:00, 9.7,11.3
2023/10/28 08:10:00, 6.2,11.5
2023/10/28 08:20:00, 4.1,11.6
2023/10/28 08:30:00, 6.3,11.4
2023/10/28 08:40:00, 6.5,11.6
2023/10/28 08:50:00, 5.5,11.6
2023/10/28 09:00:00, 6.1,11.9
2023/10/28 09:10:00,16.0,12.3
2023/10/28 09:20:00,21.8,12.1
2023/10/28 09:30:00,21.9,12.8
2023/10/28 09:40:00,22.6,12.6
2023/10/28 09:50:00,22.7,12.5
2023/10/28 10:00:00,22.9,12.6
2023/10/28 10:10:00,23.0,12.5
2023/10/28 10:20:00,23.4,12.7
2023/10/28 10:30:00,23.6,13.2
2023/10/28 10:40:00,24.1,13.6
2023/10/28 10:50:00,24.4,13.6
2023/10/28 11:00:00,24.9,15.2
2023/10/28 11:10:00,25.1,13.2
2023/10/28 11:20:00,25.0,18.1
2023/10/28 11:30:00,25.2,16.9
2023/10/28 11:40:00,25.2,14.1
2023/10/28 11:50:00,25.0,15.7
2023/10/28 12:00:00,25.1,16.2
2023/10/28 12:10:00,25.0,16.5
2023/10/28 12:20:00,24.7,16.6
2023/10/28 12:30:00,23.6,15.9
2023/10/28 12:40:00,24.1,16.8
2023/10/28 12:50:00,24.0,14.7
2023/10/28 13:00:00,24.0,18.7
2023/10/28 13:10:00,23.9,15.0
2023/10/28 13:20:00,23.7,17.2
2023/10/28 13:30:00,24.2,17.7
2023/10/28 13:40:00,24.2,14.2
2023/10/28 13:50:00,23.9,14.8
2023/10/28 14:00:00,24.1,14.2
2023/10/28 14:10:00,23.7,13.3
2023/10/28 14:20:00,23.8,14.8
2023/10/28 14:30:00,21.8,14.5
2023/10/28 14:40:00,23.4,15.6
2023/10/28 14:50:00,18.9,16.8
2023/10/28 15:00:00,15.0,14.9
2023/10/28 15:10:00, 6.4,14.5
2023/10/28 15:20:00, 7.9,14.2
2023/10/28 15:30:00, 7.2,14.0
2023/10/28 15:40:00,11.0,13.7
2023/10/28 15:50:00,12.7,13.4
2023/10/28 16:00:00,15.3,12.7
2023/10/28 16:10:00,23.0,12.0
2023/10/28 16:20:00,24.4,11.7
2023/10/28 16:30:00,24.7,11.4
2023/10/28 16:40:00,24.9,11.5
2023/10/28 16:50:00,25.0,11.8
2023/10/28 17:00:00,25.0,11.9
2023/10/28 17:10:00,25.1,11.4
2023/10/28 17:20:00,25.2,11.2
2023/10/28 17:30:00,25.3,10.9
2023/10/28 17:40:00,25.3,10.6
2023/10/28 17:50:00,25.3,10.3
2023/10/28 18:00:00,25.3,10.2
2023/10/28 18:10:00,25.2,10.0
2023/10/28 18:20:00,25.3,10.2
2023/10/28 18:30:00,25.3,10.0
2023/10/28 18:40:00,25.3,10.2
2023/10/28 18:50:00,25.2, 9.9
2023/10/28 19:00:00,25.2,10.1
2023/10/28 19:10:00,25.2, 9.5
2023/10/28 19:20:00,25.2, 9.8
2023/10/28 19:30:00,25.2, 9.9
2023/10/28 19:40:00,25.2, 9.9
2023/10/28 19:50:00,25.1, 9.8
2023/10/28 20:00:00,25.1, 9.6
2023/10/28 20:10:00,25.1, 9.3
2023/10/28 20:20:00,25.0, 9.5
2023/10/28 20:30:00,24.9, 9.4
2023/10/28 20:40:00,24.9, 9.2
2023/10/28 20:50:00,24.9, 9.3
2023/10/28 21:00:00,24.9, 9.4
2023/10/28 21:10:00,24.9, 9.0
2023/10/28 21:20:00,25.0, 9.2
2023/10/28 21:30:00,25.0, 8.8
2023/10/28 21:40:00,25.0, 8.7
2023/10/28 21:50:00,24.9, 8.5
2023/10/28 22:00:00,24.9, 8.4
2023/10/28 22:10:00,24.9, 8.2
2023/10/28 22:20:00,24.8, 7.7
2023/10/28 22:30:00,24.8, 7.6
2023/10/28 22:40:00,24.7, 7.6
2023/10/28 22:50:00,24.7, 7.4
2023/10/28 23:00:00,24.7, 7.1
2023/10/28 23:10:00,24.7, 7.1
2023/10/28 23:20:00,24.7, 6.7
2023/10/28 23:30:00,24.4, 6.8
2023/10/28 23:40:00,24.4, 6.4
2023/10/28 23:50:00,24.2, 6.2
